Weather in Virginia Beach

United States     36°50′59″N   75°58′37″W
temp.,
°C
wind,
m/s
gust,
m/s
humid.,
%
clouds,
%
prec.,
mm/h
press.,
hPa
HPBL,
m
17 may, mon
mon1723:00+16e2477100 0.0 1024160
02:00+16ene1179100 0.0 102451
05:00+15nne118343 0.0 102431
08:00+17ne347171 0.0 1025448
11:00+20ene3357100 0.0 10261071
14:00+20e4352100 0.0 10251105
17:00+19e4459100 0.0 1025695
20:00+17ese2474100 0.0 1026176
18 may, tue
tue1823:00+17ese2475100 0.0 1026159
02:00+16ese237929 0.0 102698
05:00+14s11899 0.0 102620
08:00+17ene117437 0.0 1028166
11:00+21ene32535 0.0 10281173
14:00+22e435078 0.0 10271307
17:00+21se435376 0.0 1026726
20:00+17se3477100 0.0 1027113
19 may, wed
wed1923:00+15s238582 0.0 102750
02:00+14ssw228785 0.0 102735
05:00+14wsw228798 0.0 102732
08:00+18w22728 0.0 1028171
11:00+23ne225362 0.0 10291041
14:00+24e32486 0.0 10281303
17:00+23se43503 0.0 1027629
20:00+18sse35715 0.0 1027100
20 may, thu
thu2023:00+16s347086 0.0 102872
02:00+15sw2368100 0.0 102858
05:00+15wsw237090 0.0 102949
08:00+18w1261100 0.0 102998
11:00+24ne1144100 0.0 1030672
14:00+25ese3241100 0.0 10291135
17:00+24se4343100 0.0 1028608
20:00+19sse345996 0.0 102867
21 may, fri
fri2123:00+17ssw2358100 0.0 102945
02:00+16sw2361100 0.0 102846
05:00+16wsw227477 0.0 102938
08:00+19w2460100 0.0 1030148
11:00+26nnw124423 0.0 1029802
14:00+26ese3244100 0.0 10281078
17:00+24se4451100 0.0 1026290
20:00+19sse366913 0.0 1026132